Home > Weather > Russia > Syktyvkar > Past weeks

Flag for Russia Weather past 2 weeks in Syktyvkar, Russia

32 °F

Partly sunny.

Feels Like: 22 °F
Forecast: 25 / 32 °F
Wind: 13 mph from South

Location: Syktyvkar Airport

Current Time: Dec 1, 2015 at 3:56:29 PM

Latest Report: Dec 1, 2015 at 3:00 PM

Visibility: N/A

Pressure: 29.65 "Hg

Humidity: 80%

Dew point: 27 °F

Location of SyktyvkarLocation

Historic Weather in Syktyvkar — Graph


Syktyvkar temperature yesterday

Maximum temperature yesterday: 30 °F (at 9:00 PM)
Minimum temperature yesterday: 21 °F (at 4:00 PM)
Average temperature yesterday: 27 °F

Past Weeks' High & Low Weather Summary

High36 °F (Nov 28, 4:00 PM)100% (Nov 22, 11:30 PM)30.27 "Hg (Nov 22, 11:30 PM)
Low12 °F (Nov 17, 8:30 AM)69% (Nov 30, 1:30 PM)29.33 "Hg (Nov 27, 11:00 PM)
Average24 °F86%29.87 "Hg
* Reported Nov 16 2:00 PM — Dec 1 2:30 PM, Syktyvkar, Weather by CustomWeather, © 2015

Note: Actual official high and low records may vary slightly from our data, if they occured in-between our weather recording intervals... More about our weather records


Syktyvkar weather history for previous 24 hours

Time TempWeatherWind HumidityBarometerVisibility
2:30 PM
Tue, Dec 1
32 °FPartly sunny.13 mph80%29.65 "HgN/A
2:00 PM32 °FPartly sunny.13 mph80%29.65 "HgN/A
1:30 PM32 °FSnow flurries. Partly sunny.13 mph80%29.65 "HgN/A
1:00 PM30 °FSnow flurries. Partly sunny.10 mph93%29.65 "Hg2 mi
12:30 PM30 °FSnow flurries. Partly sunny.13 mph86%29.65 "Hg2 mi
12:00 PM30 °FPartly sunny.10 mph86%29.65 "HgN/A
11:30 AM30 °FPartly sunny.13 mph86%29.65 "HgN/A
10:30 AM30 °FOvercast.10 mph86%29.65 "HgN/A
10:00 AM30 °FLight snow. Overcast.10 mph86%29.65 "Hg4 mi
9:30 AM30 °FLight snow. Overcast.13 mph86%29.65 "Hg4 mi
9:00 AM30 °FLight snow. Overcast.8 mph86%29.65 "HgN/A
8:30 AM30 °FLight snow. Overcast.8 mph86%29.65 "Hg6 mi
8:00 AM30 °FLight snow. Overcast.10 mph86%29.65 "Hg5 mi
7:30 AM30 °FOvercast.13 mph86%29.65 "Hg6 mi
7:00 AM30 °FPassing clouds.13 mph86%29.65 "HgN/A
6:30 AM30 °FPartly cloudy.13 mph86%29.65 "HgN/A
6:00 AM30 °FPartly cloudy.13 mph86%29.68 "Hg6 mi
5:30 AM30 °FPartly cloudy.13 mph86%29.68 "HgN/A
5:00 AM28 °FSnow flurries. Partly cloudy.10 mph93%29.68 "Hg5 mi
4:00 AM28 °FSnow flurries. Partly cloudy.10 mph93%29.68 "Hg2 mi
3:30 AM28 °FSnow showers. Partly cloudy.10 mph93%29.71 "Hg1 mi
2:30 AM28 °FSnow flurries. Passing clouds.10 mph86%29.71 "Hg2 mi
2:00 AM28 °FSnow flurries. Passing clouds.10 mph86%29.74 "Hg2 mi
1:30 AM28 °FPassing clouds.10 mph86%29.74 "HgN/A
1:00 AM28 °FPassing clouds.13 mph86%29.74 "HgN/A
12:00 AM28 °FSnow flurries. Passing clouds.10 mph86%29.77 "Hg6 mi
11:30 PM
Mon, Nov 30
28 °FPassing clouds.8 mph93%29.77 "HgN/A
11:00 PM28 °FSnow flurries. Partly cloudy.8 mph93%29.77 "Hg2 mi
10:30 PM28 °FSnow flurries. Passing clouds.10 mph86%29.77 "Hg2 mi
10:00 PM30 °FPassing clouds.13 mph80%29.77 "HgN/A
9:30 PM30 °FPassing clouds.10 mph80%29.77 "HgN/A
9:00 PM30 °FPassing clouds.10 mph80%29.77 "HgN/A
8:30 PM28 °FPassing clouds.10 mph80%29.77 "HgN/A
8:00 PM28 °FPassing clouds.8 mph80%29.77 "HgN/A
7:30 PM28 °FPassing clouds.8 mph80%29.80 "HgN/A
7:00 PM27 °FPassing clouds.8 mph86%29.80 "HgN/A
6:30 PM27 °FClear.10 mph80%29.80 "Hg10 mi
6:00 PM27 °FClear.8 mph80%29.83 "Hg10 mi
5:30 PM25 °FClear.8 mph86%29.83 "Hg10 mi
5:00 PM23 °FClear.6 mph86%29.83 "Hg10 mi
4:30 PM21 °FClear.6 mph86%29.86 "Hg10 mi
4:00 PM21 °FClear.6 mph86%29.86 "Hg10 mi
3:30 PM23 °FClear.8 mph86%29.86 "Hg10 mi
3:00 PM23 °FSunny.6 mph80%29.86 "Hg10 mi
Weather by CustomWeather, © 2015

See weather overviewHow to use our weather pages